Вернуться в каталог

COSMOS 2251 DEB

АктивенLEO
NORAD 35585·DEBRIS·🇷🇺 Russia

Запущен Jun 16, 1993 с Plesetsk Cosmodrome

Loading…

Ближайшие Пролёты (ближайшие 24 часа)

TLE

УстаревающийSource: Space-Track

Эпоха: Sep 12, 2026, 10:18 UTC

1 35585U 93036AMC 26255.42946152  .00000845  00000-0  63602-3 0  9997
2 35585  73.9682 251.1412 0303165 107.2134  40.8506 13.76072632678275

Отслеживайте COSMOS 2251 DEB в реальном времени с AllMySat

Download on the App Store